Regional Weather Roundup
Issued by NWS Newport/Morehead, NC

Current Version | Previous Version | Graphics & Text | Print | Product List | Glossary Off
Versions: 1 2 3 4 5 6 7 8 9 10 11 12 13 14 15 16 17 18 19 20 21 22 23 24 25 26 27 28 29 30 31 32 33 34 35 36 37 38 39 40 41 42 43 44 45 46 47 48 49 50

309
ASUS42 KMHX 161513
RWRMHX
WEATHER ROUNDUP FOR EASTERN NORTH CAROLINA
NATIONAL WEATHER SERVICE NEWPORT/MOREHEAD CITY NC
1000 AM EST MON JAN 16 2017

NOTE: "FAIR" INDICATES FEW OR NO CLOUDS BELOW 12,000 FEET
WITH NO SIGNIFICANT WEATHER AND/OR OBSTRUCTIONS TO VISIBILITY

NCZ015>017-031-032-045>047-102-103-161600-
NORTH COAST

CITY           SKY/WX    TMP DP  RH WIND       PRES   REMARKS
EDENTON        CLOUDY    44  40  86 CALM      30.48R
ELIZABETH CITY CLOUDY    42  39  89 N7        30.48R
KITTY HAWK     NOT AVBL
MANTEO         CLOUDY    45  40  82 NE8       30.45R

$$

NCZ045>047-081-094-103-104-161600-
CENTRAL COAST

CITY           SKY/WX    TMP DP  RH WIND       PRES   REMARKS
FRISCO         CLOUDY    50  43  77 VRB6      30.43R

$$

NCZ095-097-098-100-101-161600-
SOUTHERN COAST

CITY           SKY/WX    TMP DP  RH WIND       PRES   REMARKS
BEAUFORT       CLOUDY    49  41  74 NE10      30.43R
CEDAR ISLAND   NOT AVBL
JACKSONVILLE   CLOUDY    48  40  73 NE9       30.43R
PINEY ISLAND   CLOUDY   N/A N/A N/A N8        30.44R
WILMINGTON     CLOUDY    49  40  71 N7        30.43R


$$

NCZ011>013-027>030-043-044-078>080-089-090>093-098-161600-
COASTAL PLAIN

CITY           SKY/WX    TMP DP  RH WIND       PRES   REMARKS
AHOSKIE          N/A     39  34  83 N3        30.49R
CLINTON        CLOUDY    46  37  71 NE5       30.45S
ELIZABETHTOWN  CLOUDY    47  39  73 N5        30.43R
GOLDSBORO      CLOUDY    46  35  67 E7        30.43S
GREENVILLE     NOT AVBL
HAVELOCK       CLOUDY    48  40  73 NE7       30.45R
KENANSVILLE    CLOUDY    46  37  71 NE5       30.45R
KINSTON        CLOUDY    46  36  66 NE7       30.46R
NEW BERN       CLOUDY    46  40  79 NE5       30.46R
RICHLANDS      CLOUDY    47  39  74 NE8       30.44R
ROCKY MOUNT    CLOUDY    43  32  65 NE3       30.46R
WASHINGTON     CLOUDY    43  35  73 NE5       30.46R HAZE
WHITEVILLE     CLOUDY    47  45  91 NE6       30.43R FOG

$$

AMZ130-135-150-152-154-156-158-170-250-252-270-ANZ085-086-088-633-658-670-161600-
MARINE OBSERVATIONS

STATION/POSITION TIME  TEMP    WIND        PRES    WAVE   SWELL
                       AIR SEA DIR/SP/G            HT/PER HT/PER
                 (UTC) (F)     (DEG/KT/KT) (MB)    (FT/S) (FT/S)
CHESAPEAKE LIGHT NOT AVBL
64 E VA BEACH    1450   50 58   40/ 10/ 14 1030.7    3/ 8   3/ 8
DUCK             1448   45 44   30/ 10/ 11 1030.7
2 E DUCK         1430      45                N/A     3/ 8
OREGON INLET     1442   47 49   10/  6/ 12 1030.8
13E OREGON INLT  NOT AVBL
HATTERAS CG      1448           20/  9/ 14   N/A
DIAMOND BUOY     1450   58 74   30/ 17/ 19 1029.4    4/ 5   2/ 8
CAPE LOOKOUT     1400   48      20/ 14/ 16 1029.3
BEAUFORT LAB     1448           30/ 12/ 15   N/A
30 SE NEW RVR IN 1408   53 64   50/ 17/ 23 1028.8
30 SE NEW RVR IN 1443      64                N/A     5/ 5   2/12
27 SE WRIGHTSVLE 1408   57 70   70/ 16/ 23 1028.3
5 SE WRIGHTSVLE  NOT AVBL
225 S CAPE HAT   1450   69 71   80/  4/  6 1027.9    4/ 8   3/ 8
41 SE CHARLESTON 1450   69 71   30/ 10/ 10 1026.8    4/10   3/10

$$




USA.gov is the U.S. government's official web portal to all federal, state and local government web resources and services.